Weather History for Whiteman AFB, MO

Change the Weather History Date:

Tuesday, July 29, 2014

  Actual Average Record
Temperature  
Mean Temperature 68 °F -  
Max Temperature 81 °F 86 °F 105 °F (2012)
Min Temperature 56 °F 68 °F 56 °F (2014)
Cooling Degree Days 4    
Growing Degree Days 18 (Base 50)    
Moisture  
Dew Point 48 °F    
Average Humidity 51    
Maximum Humidity 75    
Minimum Humidity 26    
Precipitation  
Precipitation 0.00 in - - ()
Sea Level Pressure  
Sea Level Pressure 30.13 in    
Wind  
Wind Speed 3 mph (West)    
Max Wind Speed 10 mph    
Max Gust Speed -    
Visibility 10 miles    
Events      
Averages and records for this station are not official NWS values.
T = Trace of Precipitation, MM = Missing Value Source: NWS Daily Summary

Daily Weather History Graph

Daily Weather History Graph

Search for Another Location

Airport:

Trip Planner

Search our weather history database for the weather conditions in past years. The results will help you decide how hot, cold, wet, or windy it might be!

Date:

Astronomy

Jul. 29, 2014 Rise Set
Actual Time 6:12 AM CDT 8:27 PM CDT
Civil Twilight 5:43 AM CDT 8:57 PM CDT
Nautical Twilight 5:06 AM CDT 9:34 PM CDT
Astronomical Twilight 4:26 AM CDT 10:14 PM CDT
Moon 8:47 AM CDT (7/29) 9:43 PM CDT (7/29)
Length of Visible Light 15h 14m
Length of Day
14h 14m
Waxing Crescent, 7% of the Moon is Illuminated
Jul 29
Waxing Crescent
Aug 3
First Quarter
Aug 10
Full
Aug 17
Last Quarter
Aug 25
New

Hourly Weather History & Observations

Time (CDT) Temp. Dew Point Humidity Pressure Visibility Wind Dir Wind Speed Gust Speed Precip Events Conditions
12:58 AM 60.8 °F 50.4 °F 68% 30.16 in 10.0 mi South 2.3 mph - N/A   Partly Cloudy
1:58 AM 60.3 °F 50.5 °F 70% 30.16 in 10.0 mi Calm Calm - N/A   Clear
2:58 AM 60.3 °F 50.9 °F 71% 30.15 in 10.0 mi South 1.2 mph - N/A   Clear
3:58 AM 57.6 °F 49.5 °F 74% 30.15 in 10.0 mi Calm Calm - N/A   Clear
4:58 AM 56.1 °F 48.0 °F 74% 30.15 in 10.0 mi NE 1.2 mph - N/A   Clear
5:58 AM 56.1 °F 48.0 °F 74% 30.16 in 10.0 mi Calm Calm - N/A   Clear
6:58 AM 56.3 °F 48.6 °F 75% 30.17 in 10.0 mi Calm Calm - N/A   Clear
7:58 AM 63.0 °F 51.1 °F 65% 30.17 in 10.0 mi SSW 3.5 mph - N/A   Clear
8:58 AM 68.4 °F 49.8 °F 51% 30.17 in 10.0 mi SSW 5.8 mph - N/A   Clear
9:58 AM 72.3 °F 49.1 °F 44% 30.17 in 9.0 mi SW 10.4 mph - N/A   Clear
10:58 AM 75.0 °F 48.6 °F 39% 30.17 in 10.0 mi West 5.8 mph - N/A   Clear
11:58 AM 77.0 °F 47.5 °F 35% 30.17 in 8.0 mi WSW 6.9 mph - N/A   Partly Cloudy
12:58 PM 77.5 °F 45.7 °F 32% 30.16 in 10.0 mi West 5.8 mph - N/A   Scattered Clouds
1:58 PM 80.8 °F 44.4 °F 28% 30.14 in 10.0 mi North 8.1 mph - N/A   Partly Cloudy
2:58 PM 81.1 °F 43.0 °F 26% 30.12 in 9.0 mi North 6.9 mph - N/A   Scattered Clouds
3:58 PM 79.3 °F 43.5 °F 28% 30.13 in 9.0 mi Variable 1.2 mph - N/A   Mostly Cloudy
4:58 PM 80.4 °F 46.9 °F 31% 30.11 in 10.0 mi NNW 8.1 mph - N/A   Clear
5:58 PM 79.0 °F 45.3 °F 30% 30.10 in 10.0 mi North 6.9 mph - N/A   Partly Cloudy
6:58 PM 78.6 °F 46.0 °F 32% 30.09 in 10.0 mi NE 5.8 mph - N/A   Clear
7:58 PM 75.2 °F 50.0 °F 41% 30.08 in 9.0 mi NNE 4.6 mph - N/A   Clear
8:58 PM 69.6 °F 51.1 °F 52% 30.08 in 10.0 mi Calm Calm - N/A   Clear
9:58 PM 68.7 °F 49.5 °F 50% 30.09 in 10.0 mi South 1.2 mph - N/A   Scattered Clouds
10:58 PM 65.7 °F 52.0 °F 61% 30.09 in 10.0 mi Calm Calm - N/A   Clear
11:58 PM 63.3 °F 51.3 °F 65% 30.09 in 10.0 mi Calm Calm - N/A   Clear